LRAR Weather Reports


time (UTC)temp
C
wind
direction
speed
KPH
gust
KPH
rain 1hr
cm
rain 24hr
cm
rain mn
cm
humidity
%
barometer
mb
20260507230338 15 350 1.6 0.0 0.00 0.00 0.00 100 1015.0
20260507224838 15 100 3.2 0.0 0.00 0.00 0.00 100 1015.0
20260507223458 15 100 3.2 0.0 0.00 0.00 0.00 100 1015.0
20260507221835 15 3.2 0.0 0.00 0.00 0.00 100 1015.0
20260507220338 15 3.2 0.0 0.00 0.00 0.00 100 1015.0
20260507214838 15 340 3.2 0.0 0.00 0.00 0.00 100 1015.0
20260507213340 15 340 3.2 0.0 0.00 0.00 0.00 100 1015.0
20260507211839 16 90 3.2 0.0 0.00 0.00 0.00 94 1015.0
20260507210339 16 90 3.2 0.0 0.00 0.00 0.00 94 1015.0
20260507204838 16 110 4.8 0.0 0.00 0.00 0.00 94 1015.0
20260507203339 16 110 4.8 0.0 0.00 0.00 0.00 94 1015.0
20260507201838 16 80 4.8 0.0 0.00 0.00 0.00 94 1015.0
20260507200339 16 80 4.8 0.0 0.00 0.00 0.00 94 1015.0
20260507194844 16 30 3.2 0.0 0.00 0.00 0.00 94 1015.0
20260507193338 16 30 3.2 0.0 0.00 0.00 0.00 94 1015.0
20260507191838 16 10 3.2 0.0 0.00 0.00 0.00 94 1015.0
20260507190339 16 10 3.2 0.0 0.00 0.00 0.00 94 1015.0
20260507184840 16 0 0.0 0.0 0.00 0.00 0.00 94 1014.0
20260507183338 16 0 0.0 0.0 0.00 0.00 0.00 94 1014.0
20260507181838 16 80 1.6 0.0 0.00 0.00 0.00 88 1014.0
20260507180338 16 80 1.6 0.0 0.00 0.00 0.00 88 1014.0
20260507174838 16 90 3.2 0.0 0.00 0.00 0.00 88 1014.0
20260507173339 16 90 3.2 0.0 0.00 0.00 0.00 88 1014.0
20260507171839 17 50 4.8 0.0 0.00 0.00 0.00 83 1014.0
20260507170338 17 50 4.8 0.0 0.00 0.00 0.00 83 1014.0
20260507164839 17 100 3.2 0.0 0.00 0.00 0.00 83 1014.0
20260507163339 17 100 3.2 0.0 0.00 0.00 0.00 83 1014.0
20260507161838 17 60 4.8 0.0 0.00 0.00 0.00 83 1014.0
20260507160338 17 60 4.8 0.0 0.00 0.00 0.00 83 1014.0
20260507154839 17 80 8.0 0.0 0.00 0.00 0.00 77 1014.0
20260507153338 17 80 8.0 0.0 0.00 0.00 0.00 77 1014.0
20260507151838 17 100 3.2 0.0 0.00 0.00 0.00 83 1014.0
20260507150338 17 100 3.2 0.0 0.00 0.00 0.00 83 1014.0
20260507144838 17 100 9.7 0.0 0.00 0.00 0.00 83 1014.0
20260507143340 17 100 9.7 0.0 0.00 0.00 0.00 83 1014.0
20260507141838 17 130 8.0 0.0 0.00 0.00 0.00 78 1015.0
20260507140338 17 130 8.0 0.0 0.00 0.00 0.00 78 1015.0
20260507134839 17 120 11.3 0.0 0.00 0.00 0.00 78 1015.0
20260507133338 17 120 11.3 0.0 0.00 0.00 0.00 78 1015.0
20260507131835 17 130 9.7 0.0 0.00 0.00 0.00 78 1015.0
20260507130338 17 130 9.7 0.0 0.00 0.00 0.00 78 1015.0
20260507124835 17 160 9.7 0.0 0.00 0.00 0.00 78 1015.0
20260507123418 17 160 9.7 0.0 0.00 0.00 0.00 78 1015.0
20260507121838 17 170 9.7 0.0 0.00 0.00 0.00 83 1015.0
20260507120338 17 170 9.7 0.0 0.00 0.00 0.00 83 1015.0
20260507114838 17 170 9.7 0.0 0.00 0.00 0.00 83 1015.0
20260507113358 17 160 11.3 0.0 0.00 0.00 0.00 83 1015.0
20260507111838 17 160 11.3 0.0 0.00 0.00 0.00 83 1015.0
20260507110338 17 160 11.3 0.0 0.00 0.00 0.00 83 1015.0
20260507104838 17 190 14.5 0.0 0.00 0.00 0.00 94 1015.0
20260507103338 17 190 14.5 0.0 0.00 0.00 0.00 94 1015.0
20260507101838 17 180 16.1 0.0 0.00 0.00 0.00 94 1016.0
20260507100339 17 180 16.1 0.0 0.00 0.00 0.00 94 1016.0
20260507094839 17 180 12.9 0.0 0.00 0.00 0.00 94 1016.0
20260507093339 17 180 12.9 0.0 0.00 0.00 0.00 94 1016.0
20260507091840 16 170 9.7 0.0 0.00 0.00 0.00 100 1015.0
20260507090338 16 170 9.7 0.0 0.00 0.00 0.00 100 1015.0
20260507084838 16 190 12.9 0.0 0.00 0.00 0.00 94 1015.0
20260507083339 16 190 12.9 0.0 0.00 0.00 0.00 94 1015.0
20260507081838 16 210 12.9 0.0 0.00 0.00 0.00 94 1015.0
20260507080339 16 210 12.9 0.0 0.00 0.00 0.00 94 1015.0
20260507074839 15 220 12.9 0.0 0.00 0.00 0.00 100 1015.0
20260507073338 15 220 12.9 0.0 0.00 0.00 0.00 100 1015.0
20260507071838 16 230 16.1 0.0 0.00 0.00 0.00 88 1015.0
20260507070338 16 230 16.1 0.0 0.00 0.00 0.00 88 1015.0
20260507064838 17 230 11.3 0.0 0.00 0.00 0.00 77 1014.0
20260507063338 17 230 11.3 0.0 0.00 0.00 0.00 77 1014.0
20260507061848 16 240 8.0 0.0 0.00 0.00 0.00 77 1014.0
20260507060338 16 240 8.0 0.0 0.00 0.00 0.00 77 1014.0
20260507054838 16 240 4.8 0.0 0.00 0.00 0.00 72 1014.0
20260507053346 16 240 4.8 0.0 0.00 0.00 0.00 72 1014.0
20260507051839 15 250 4.8 0.0 0.00 0.00 0.00 77 1013.0
20260507050338 15 250 4.8 0.0 0.00 0.00 0.00 77 1013.0
20260507044835 15 320 8.0 0.0 0.00 0.00 0.00 77 1013.0
20260507043338 15 320 8.0 0.0 0.00 0.00 0.00 77 1013.0
20260507041838 13 240 4.8 0.0 0.00 0.00 0.00 82 1012.0
20260507040338 13 240 4.8 0.0 0.00 0.00 0.00 82 1012.0
20260507034835 13 1.6 0.0 0.00 0.00 0.00 77 1012.0
20260507033338 13 1.6 0.0 0.00 0.00 0.00 77 1012.0
20260507031838 13 0 0.0 0.0 0.00 0.00 0.00 77 1012.0
20260507030338 13 0 0.0 0.0 0.00 0.00 0.00 77 1012.0
20260507024835 13 3.2 0.0 0.00 0.00 0.00 77 1012.0
20260507023338 13 3.2 0.0 0.00 0.00 0.00 77 1012.0
20260507021838 13 270 4.8 0.0 0.00 0.00 0.00 77 1012.0
20260507020338 13 270 4.8 0.0 0.00 0.00 0.00 77 1012.0
20260507014838 15 140 8.0 0.0 0.00 0.00 0.00 72 1011.0
20260507013338 15 140 8.0 0.0 0.00 0.00 0.00 72 1011.0
20260507011838 15 130 8.0 0.0 0.00 0.00 0.00 68 1011.0
20260507010338 15 130 8.0 0.0 0.00 0.00 0.00 68 1011.0
20260507004838 16 1.6 0.0 0.00 0.00 0.00 63 1011.0
20260507003339 16 1.6 0.0 0.00 0.00 0.00 63 1011.0
20260507001838 16 170 9.7 0.0 0.00 0.00 0.00 63 1011.0
20260507000338 16 170 9.7 0.0 0.00 0.00 0.00 63 1011.0
20260506234838 17 160 12.9 0.0 0.00 0.00 0.00 59 1011.0
20260506233338 17 160 12.9 0.0 0.00 0.00 0.00 59 1011.0
20260506231839 15 140 14.5 0.0 0.00 0.00 0.00 68 1011.0